Home   Weather   Hamilton   Past weeks

Flag for Canada Past Weather in Hamilton, Ontario, Canada — Yesterday and Last 2 Weeks

Now
54 °F

Passing clouds.


Feels Like: 51 °F
Forecast: 51 / 67 °F
Wind: 8 mph from Southwest

Location: Hamilton Airport

Current Time: Sep 26, 2016 at 10:04:03 PM

Latest Report: Sep 26, 2016 at 9:00 PM


Visibility: 15 mi

Pressure: 29.90 "Hg

Humidity: 88%

Dew Point: 50 °F

Location of HamiltonLocation

Past Weather in Hamilton — Graph

°F

Hamilton Temperature Yesterday

Maximum temperature yesterday: 64 °F (at 1:00 PM)
Minimum temperature yesterday: 45 °F (at 3:00 AM)
Average temperature yesterday: 54 °F

High & Low Weather Summary for the Past Weeks

 TemperatureHumidityPressure
High84 °F (Sep 22, 3:00 PM)100% (Sep 12, 2:00 AM)30.36 "Hg (Sep 12, 2:00 AM)
Low45 °F (Sep 25, 3:00 AM)30% (Sep 21, 4:00 PM)29.85 "Hg (Sep 26, 5:00 PM)
Average63 °F75%30.12 "Hg
* Reported Sep 11 9:00 PM — Sep 26 9:00 PM, Hamilton, Weather by CustomWeather, © 2016

Note: Actual official high and low records may vary slightly from our data, if they occured in-between our weather recording intervals... More about our weather records

Advertising

Hamilton Weather History for the Previous 24 Hours

Scroll right to see more
 ConditionsComfort  
Time TempWeatherWind HumidityBarometerVisibility
9:00 PM
Mon, Sep 26
54 °FPassing clouds.8 mph88%29.90 "Hg15 mi
8:00 PM52 °FPassing clouds.7 mph88%29.89 "Hg15 mi
7:00 PM57 °FBroken clouds.7 mph72%29.88 "Hg15 mi
6:00 PM59 °FBroken clouds.8 mph72%29.86 "Hg15 mi
5:00 PM63 °FMostly cloudy.14 mph88%29.85 "Hg15 mi
4:00 PM63 °FMostly cloudy.12 mph88%29.85 "Hg15 mi
3:00 PM64 °FMostly cloudy.15 mph88%29.86 "Hg15 mi
1:00 PM61 °FLight rain. Fog.8 mph100%29.88 "Hg5 mi
12:00 PM61 °FRain. Fog.8 mph94%29.89 "Hg1 mi
11:00 AM61 °FLight rain. More clouds than sun.7 mph94%29.87 "Hg10 mi
10:02 AM61 °FLight rain. Mostly cloudy.9 mph88%29.90 "Hg12 mi
9:00 AM61 °FBroken clouds.6 mph83%29.92 "Hg15 mi
8:00 AM55 °FPartly sunny.3 mph88%29.94 "Hg15 mi
7:00 AM50 °FPassing clouds.6 mph88%29.96 "Hg15 mi
6:00 AM50 °FPassing clouds.7 mph88%29.98 "Hg15 mi
5:00 AM48 °FPassing clouds.7 mph94%29.99 "Hg15 mi
4:00 AM50 °FPassing clouds.6 mph82%30.01 "Hg15 mi
3:00 AM52 °FPassing clouds.6 mph77%30.04 "Hg15 mi
2:00 AM50 °FPartly cloudy.5 mph76%30.06 "Hg15 mi
1:00 AM50 °FPassing clouds.7 mph76%30.09 "Hg15 mi
12:00 AM52 °FPassing clouds.8 mph77%30.10 "Hg15 mi
11:00 PM
Sun, Sep 25
50 °FPassing clouds.8 mph82%30.13 "Hg15 mi
10:00 PM48 °FPassing clouds.8 mph82%30.16 "Hg15 mi
Weather by CustomWeather, © 2016

See weather overviewHow to use our weather pages